Location: Old Broadwell Mill Observatory
(33.8015°N, 85.8137°W)
Time: 11:45:18
(UTC-05:00)

Daily predictions for brighter satellites

Satellite Brightness Start Highest point End
(mag) Time Altitude Azimuth Time Altitude Azimuth Time Altitude Azimuth
SJ-6B 3.6 19:35:54 10° S 19:39:34 54° W 19:43:14 10° NNW
METEOR-M 4.1 19:36:54 10° SSE 19:42:13 74° ENE 19:47:33 10° N
Meteor 1-29 3.3 19:42:04 10° N 19:45:31 72° WNW 19:48:57 10° SSW
Cosmos 1633 2.9 19:45:48 10° S 19:49:26 73° W 19:53:06 10° N
Centaur D-1A AC-32 3.4 19:46:00 10° WSW 19:51:10 30° S 19:54:03 10° ESE
FengYun 1-2 T 4.3 19:48:21 10° SSE 19:53:57 69° ENE 19:59:31 10° N
ATLAS 3B CENTAUR R/B 1.7 19:52:48 10° SW 19:54:21 17° S 19:55:33 11° SE
CZ-2D R/B 4.0 19:50:59 10° SE 19:54:28 34° ENE 19:58:00 10° N
Cosmos 1934 Rocket 4.0 19:48:32 10° S 19:54:28 58° E 20:00:32 10° NNE
Resurs 01 Rocket 1.8 19:50:20 10° S 19:54:44 77° WSW 19:59:11 10° NNW
HJ-1C 4.1 19:55:16 10° S 19:58:29 55° W 20:01:43 10° NNW
Hubble Space Telescope 1.8 19:55:55 10° WSW 19:59:42 34° S 20:03:00 13° SE
Cosmos 1777 Rocket 4.0 19:59:40 10° N 20:04:54 65° ENE 20:10:07 10° SSE
EP 1 4.2 20:05:10 10° SSW 20:07:45 79° WNW 20:10:14 10° NNE
Delta 2 Rocket 4.1 20:04:13 10° W 20:09:56 79° N 20:14:11 16° E
Cosmos 1544 Rocket 3.6 20:06:03 10° S 20:10:24 85° W 20:14:50 10° N
Cosmos 1536 4.4 20:07:08 10° SSW 20:10:53 39° W 20:14:41 10° N
Cosmos 1346 Rocket 3.1 20:08:32 10° N 20:12:20 46° E 20:15:55 11° SSE
USA 186 2.1 20:09:57 14° SE 20:12:23 40° ENE 20:15:14 10° N
FENGYUN 3A 3.6 20:07:34 10° SSE 20:12:52 69° ENE 20:18:12 10° N
Tiangong 1 3.6 20:10:56 10° NW 20:13:05 17° N 20:15:13 10° NE
Cosmos 2227 Rocket 2.8 20:09:17 10° N 20:14:33 38° ENE 20:18:21 17° ESE
OTV 4 1.5 20:12:04 10° WNW 20:14:52 37° N 20:16:45 17° ENE
Cosmos 2208 Rocket 4.1 20:10:26 10° SSW 20:15:43 89° WNW 20:21:07 10° NNE
Cosmos 1656 4.1 20:12:47 10° S 20:17:58 39° ESE 20:23:07 10° NE
Meteor 1-5 Rocket 4.2 20:14:03 10° S 20:19:21 84° W 20:24:47 10° N
NOSS 3-4 (A) 4.0 20:15:11 10° NNW 20:22:14 62° ENE 20:28:02 17° SE
NOSS 3-4 (C) 4.0 20:15:19 10° NNW 20:22:21 61° ENE 20:28:05 18° SE
CZ-4 DEB 3.9 20:26:40 25° ENE 20:26:45 25° ENE 20:29:25 10° NNE
Cosmos 2082 4.0 20:22:37 10° N 20:28:02 46° ENE 20:31:16 23° SE
Cosmos 2297 Rocket 2.9 20:25:01 10° N 20:30:12 36° ENE 20:32:48 24° ESE
ATLAS 2A CENTAUR R/B 3.2 20:32:27 10° WSW 20:33:50 11° SW 20:34:51 10° SSW
Envisat 3.9 20:34:13 25° ESE 20:35:48 30° ENE 20:40:12 10° N
Cosmos 1605 Rocket 4.1 20:33:03 10° S 20:39:25 86° W 20:45:44 10° N
Cosmos 1515 4.3 20:41:26 10° NNE 20:44:57 37° ENE 20:44:57 37° ENE
OAO 2 Rocket 3.2 20:40:53 10° WSW 20:45:55 90° S 20:48:32 29° E
Cosmos 2100 Rocket 4.3 20:42:26 20° SSE 20:46:20 43° E 20:52:11 10° NNE
Cosmos 2061 Rocket 4.4 20:44:13 25° SE 20:47:10 39° E 20:52:57 10° NNE
YAOGAN 11 4.1 20:50:15 36° SE 20:51:58 67° ENE 20:56:26 10° N
Iridium 4 Rocket 3.2 20:49:35 10° N 20:54:39 75° E 20:56:49 32° SSE
Cosmos 1975 3.1 20:51:38 10° SSW 20:55:42 71° W 20:59:48 10° N
DELTA 2 R/B (1) 4.1 20:52:31 10° WNW 20:57:57 52° N 21:00:24 30° ENE
Cosmos 1066 Rocket 4.4 20:56:30 10° N 21:02:03 53° E 21:03:26 43° ESE
Cosmos 1697 Rocket 2.5 20:59:09 10° SSW 21:04:47 77° ESE 21:10:26 10° NNE
H-2A R/B 2.8 21:06:31 35° NE 21:06:31 35° NE 21:09:33 10° N
ALOS 4.3 21:04:54 10° SSW 21:08:48 26° W 21:12:44 10° NW
ERS-1 Rocket 2.9 21:07:44 42° SSE 21:09:29 90° NE 21:14:31 10° NNW
Lacrosse 5 rocket 1.9 21:06:32 10° NNW 21:09:24 40° NNE 21:09:24 40° NNE
Cosmos 1626 Rocket 4.0 21:09:50 10° NNW 21:14:10 59° W 21:15:37 38° SSW
deb Chang Zheng 4 3.5 21:13:54 10° NNE 21:18:17 81° ENE 21:18:17 81° ENE
Cosmos 1898 Rocket 3.4 21:13:39 10° N 21:18:54 63° ENE 21:19:08 62° E
Cosmos 1461 3.4 21:17:24 10° NW 21:21:13 50° WSW 21:21:13 50° WSW
Cosmos 1602 Rocket 4.5 21:18:17 10° NNW 21:22:34 46° W 21:24:05 33° SW
Cosmos 1459 Rocket 3.8 21:21:24 35° S 21:24:05 86° E 21:30:12 10° N
Nimbus 7 Rocket 4.3 21:18:30 10° NNE 21:24:36 85° ESE 21:27:56 29° SSW
Cosmos 1980 Rocket 2.0 21:26:51 70° ESE 21:26:52 70° ESE 21:32:32 10° NNE
Cosmos 1939 Rocket 3.3 21:27:38 61° W 21:27:38 61° W 21:31:37 10° NNW
ARGOS 4.2 21:30:51 31° NE 21:30:51 31° NE 21:34:30 10° N
Lacrosse 5 3.0 21:35:31 10° NNW 21:39:26 34° NNE 21:39:26 34° NNE
Hubble Space Telescope 3.4 21:37:45 10° WSW 21:38:23 12° SW 21:38:23 12° SW
SPOT 5 3.1 21:41:22 69° N 21:41:22 69° N 21:45:42 10° NNW
USA 215 4.5 21:44:53 26° NE 21:46:17 28° NNE 21:51:40 10° NNW
MetOp-B 4.3 21:49:21 67° N 21:49:21 67° N 21:53:59 10° NNW
Cosmos 1802 Rocket 4.2 21:47:45 43° SSW 21:49:54 70° W 21:56:20 10° N
Meteor 1-21 4.4 21:44:46 10° N 21:49:52 69° NNE 21:49:52 69° NNE
SL-08 R/B 4.4 21:55:42 81° N 21:55:42 81° N 22:01:36 10° N
Cosmos 2227 Rocket 4.0 21:53:52 10° NW 21:58:18 24° W 22:00:12 20° SW
Cosmos 2263 Rocket 4.5 21:57:18 10° NNE 21:58:15 12° NE 21:58:15 12° NE
RESURS DK-1 4.4 21:56:31 10° NNW 21:58:17 25° NNW 21:58:17 25° NNW
Cosmos 2016 Rocket 4.4 22:07:39 55° WSW 22:08:15 57° W 22:14:20 10° N
CZ-3C R/B 3.9 21:51:46 10° W 22:08:58 27° SW 22:09:53 27° SSW
Cosmos 2297 Rocket 3.8 22:09:28 10° NW 22:13:59 25° WSW 22:14:38 25° WSW
H-2A R/B 4.0 22:19:51 21° N 22:19:51 21° N 22:21:36 10° N
Terra 4.2 22:23:36 16° N 22:23:36 16° N 22:24:39 10° N
SL-16 R/B 4.4 22:57:20 19° N 22:57:20 19° N 22:58:52 10° NNE
Milstar 3 Cent rocket 4.5 23:04:17 10° W 23:14:46 39° WSW 23:14:46 39° WSW
